User: anonymous   Login
Location: Mentone
(34.5413°N, 85.5351°W)
Time: 07:41:44
(UTC-05:00)
Language:

Tiros 1 despin weight - Orbit

View from above orbital plane
View from above orbital plane
View from above satellite
View from above satellite

Ground track
Ground track

The orbit data is extracted from the following two-line orbital elements,

1 00115U 60002D   17265.81285386  .00000146  00000-0  44778-4 0  9992
2 00115  48.1675  34.8294 0034959 169.4589 190.7064 14.83143435 64713
Epoch (UTC): 22 September 2017 19:30:30
Eccentricity: 0.0034959
inclination: 48.1675°
perigee height: 595 km
apogee height: 644 km
right ascension of ascending node: 34.8294°
argument of perigee: 169.4589°
revolutions per day: 14.83143435
mean anomaly at epoch: 190.7064°
orbit number at epoch: 6471

The dashed part of the orbit path shows where the satellite is in the earth's shadow,  

DLR